Time,TemperatureF,DewpointF,PressureIn,WindDirection,WindDirectionDegrees,WindSpeedMPH,WindSpeedGustMPH,Humidity,HourlyPrecipIn,Conditions,Clouds,dailyrainin,SolarRadiationWatts/m^2,SoftwareType,DateUTC
2013-10-02 00:11:00,50.0,31.0,-100.00,ESE,119,0.0,7.0,48,0.00,,,0.00,0.000000,,2013-10-02 07:11:00,
2013-10-02 00:22:00,50.0,31.0,-100.00,ESE,119,0.0,7.0,48,0.00,,,0.00,0.000000,,2013-10-02 07:22:00,
2013-10-02 00:31:00,50.0,31.0,-100.00,ESE,119,0.0,7.0,48,0.00,,,0.00,0.000000,,2013-10-02 07:31:00,
2013-10-02 01:11:00,47.0,31.0,-100.00,NNE,25,0.0,0.0,53,0.00,,,0.00,0.000000,,2013-10-02 08:11:00,
2013-10-02 01:22:00,47.0,31.0,-100.00,NNE,25,0.0,0.0,53,0.00,,,0.00,0.000000,,2013-10-02 08:22:00,
2013-10-02 01:32:00,47.0,31.0,-100.00,NNE,25,0.0,0.0,53,0.00,,,0.00,0.000000,,2013-10-02 08:32:00,
2013-10-02 02:11:00,43.0,29.0,-100.00,North,354,0.0,0.0,57,0.00,,,0.00,0.000000,,2013-10-02 09:11:00,
2013-10-02 02:21:00,43.0,29.0,-100.00,North,354,0.0,0.0,57,0.00,,,0.00,0.000000,,2013-10-02 09:21:00,
2013-10-02 02:33:00,43.0,29.0,-100.00,North,354,0.0,0.0,57,0.00,,,0.00,0.000000,,2013-10-02 09:33:00,
2013-10-02 03:12:00,43.0,29.0,-100.00,North,7,0.0,0.0,57,0.00,,,0.00,0.000000,,2013-10-02 10:12:00,
2013-10-02 03:23:00,43.0,29.0,-100.00,North,7,0.0,0.0,57,0.00,,,0.00,0.000000,,2013-10-02 10:23:00,
2013-10-02 03:32:00,43.0,29.0,-100.00,North,7,0.0,0.0,57,0.00,,,0.00,0.000000,,2013-10-02 10:32:00,
2013-10-02 04:12:00,42.0,25.0,-100.00,NNE,18,0.0,0.0,50,0.00,,,0.00,0.000000,,2013-10-02 11:12:00,
2013-10-02 04:21:00,42.0,25.0,-100.00,NNE,18,0.0,0.0,50,0.00,,,0.00,0.000000,,2013-10-02 11:21:00,
2013-10-02 04:33:00,42.0,25.0,-100.00,NNE,18,0.0,0.0,50,0.00,,,0.00,0.000000,,2013-10-02 11:33:00,
2013-10-02 05:12:00,40.0,26.0,-100.00,North,7,0.0,0.0,56,0.00,,,0.00,0.000000,,2013-10-02 12:12:00,
2013-10-02 06:11:00,42.0,31.0,-100.00,NW,322,0.0,0.0,65,0.00,,,0.00,0.000000,,2013-10-02 13:11:00,
2013-10-02 06:22:00,42.0,31.0,-100.00,NW,322,0.0,0.0,65,0.00,,,0.00,0.000000,,2013-10-02 13:22:00,
2013-10-02 06:31:00,42.0,31.0,-100.00,NW,322,0.0,0.0,65,0.00,,,0.00,0.000000,,2013-10-02 13:31:00,
2013-10-02 07:11:00,40.0,29.0,-100.00,North,354,0.0,0.0,64,0.00,,,0.00,0.000000,,2013-10-02 14:11:00,
2013-10-02 08:11:00,43.0,27.0,-100.00,North,3,0.0,0.0,52,0.00,,,0.00,25.000000,,2013-10-02 15:11:00,
2013-10-02 17:12:00,65.0,26.0,-100.00,SW,221,5.0,11.0,23,-99.99,,,0.00,488.000000,,2013-10-03 00:12:00,
2013-10-02 17:22:00,65.0,26.0,-100.00,SW,221,5.0,11.0,23,-99.99,,,0.00,488.000000,,2013-10-03 00:22:00,
2013-10-02 17:32:00,65.0,26.0,-100.00,SW,221,5.0,11.0,23,-99.99,,,0.00,488.000000,,2013-10-03 00:32:00,